TimeEDT,TemperatureF,Dew PointF,Humidity,Sea Level PressureIn,VisibilityMPH,Wind Direction,Wind SpeedMPH,Gust SpeedMPH,PrecipitationIn,Events,Conditions,WindDirDegrees,DateUTC
12:53 AM,62.1,55.0,78,30.01,10.0,East,3.5,-,N/A,,Clear,100,2013-05-19 04:53:00
1:53 AM,62.1,57.0,84,30.01,9.0,SSE,4.6,-,N/A,,Clear,150,2013-05-19 05:53:00
2:53 AM,59.0,57.0,93,30.00,6.0,SE,4.6,-,N/A,,Clear,130,2013-05-19 06:53:00
3:53 AM,61.0,59.0,93,29.98,8.0,SSE,5.8,-,N/A,,Clear,150,2013-05-19 07:53:00
4:53 AM,60.1,57.9,93,30.01,9.0,South,4.6,-,N/A,,Clear,170,2013-05-19 08:53:00
6:53 AM,61.0,59.0,93,30.02,7.0,SSE,5.8,-,N/A,,Clear,150,2013-05-19 10:53:00
8:53 AM,69.1,63.0,81,30.02,10.0,SE,9.2,-,N/A,,Clear,140,2013-05-19 12:53:00
9:53 AM,73.0,64.0,73,30.02,10.0,SE,11.5,-,N/A,,Clear,140,2013-05-19 13:53:00
10:53 AM,75.0,64.0,69,30.00,10.0,SSE,15.0,-,N/A,,Partly Cloudy,160,2013-05-19 14:53:00
11:14 AM,75.2,64.4,69,30.02,10.0,South,11.5,-,N/A,,Mostly Cloudy,170,2013-05-19 15:14:00
11:41 AM,75.2,64.4,69,30.03,10.0,South,13.8,-,N/A,,Mostly Cloudy,190,2013-05-19 15:41:00
11:53 AM,77.0,64.0,64,30.01,10.0,SSE,13.8,-,N/A,,Mostly Cloudy,150,2013-05-19 15:53:00
12:53 PM,78.1,64.0,62,30.00,10.0,SSW,10.4,-,N/A,,Scattered Clouds,200,2013-05-19 16:53:00
1:53 PM,75.9,63.0,64,29.98,10.0,SSW,8.1,-,N/A,,Overcast,210,2013-05-19 17:53:00
3:53 PM,78.1,63.0,60,29.96,10.0,SSW,6.9,-,N/A,,Overcast,200,2013-05-19 19:53:00
4:53 PM,79.0,64.0,60,29.94,10.0,SSE,6.9,-,N/A,,Mostly Cloudy,160,2013-05-19 20:53:00
5:53 PM,79.0,63.0,58,29.94,10.0,SSW,6.9,-,N/A,,Clear,210,2013-05-19 21:53:00
6:53 PM,78.1,63.0,60,29.92,10.0,SE,9.2,-,N/A,,Clear,130,2013-05-19 22:53:00
7:53 PM,77.0,63.0,62,29.95,10.0,South,4.6,-,N/A,,Partly Cloudy,170,2013-05-19 23:53:00
8:53 PM,73.9,61.0,64,29.95,10.0,SSE,6.9,-,N/A,,Clear,150,2013-05-20 00:53:00
9:53 PM,72.0,61.0,68,29.95,10.0,SE,5.8,-,N/A,,Clear,140,2013-05-20 01:53:00
10:53 PM,70.0,61.0,73,29.95,10.0,SSE,8.1,-,N/A,,Clear,160,2013-05-20 02:53:00